Overview Statistics Trail Chart Weather Telemetry Raw packets
 

This is the latest recevied weather packets stored in our database for station/object K5SVV. If no packets are shown the sender has not sent any weather packets the latest 10 day(s).

<< 44 45 46 47 48 49 50 >>
Time Temp. Humidity Pressure Rain* Wind** Luminosity Snow
1788359176 29.44° C 71% 1015.9 hPa 0 mm - 361 W/m² -
1788358872 28.89° C 72% 1015.5 hPa 0 mm - 62 W/m² -
1788358571 28.89° C 72% 1015.6 hPa 0 mm - 55 W/m² -
1788358267 28.89° C 72% 1015.4 hPa 0 mm - 294 W/m² -
1788357962 28.89° C 73% 1015.5 hPa 0 mm - 264 W/m² -
1788357657 28.89° C 73% 1015.5 hPa 0 mm - 56 W/m² -
1788357356 28.33° C 74% 1015.8 hPa 0 mm - 223 W/m² -
1788357056 28.33° C 74% 1015.7 hPa 0 mm - 86 W/m² -
1788356752 27.78° C 75% 1015.5 hPa 0 mm - 196 W/m² -
1788356447 27.78° C 74% 1015.7 hPa 0 mm - 197 W/m² -
1788356147 27.78° C 74% 1015.7 hPa 0 mm - 179 W/m² -
1788355841 27.78° C 75% 1015.4 hPa 0 mm - 152 W/m² -
1788355537 27.22° C 75% 1015.5 hPa 0 mm - 140 W/m² -
1788355232 27.22° C 75% 1015.5 hPa 0 mm - 120 W/m² -
1788354929 26.67° C 77% 1015.4 hPa 0 mm - 104 W/m² -
1788354632 26.11° C 79% 1015.4 hPa 0 mm - 86 W/m² -
1788354324 25.56° C 81% 1015.4 hPa 0 mm - 85 W/m² -
1788354019 25° C 83% 1015.5 hPa 0 mm - 69 W/m² -
1788353715 25° C 85% 1015.5 hPa 0 mm - 42 W/m² -
1788353411 23.89° C 87% 1015.3 hPa 0 mm - 41 W/m² -
1788353107 23.33° C 88% 1015.2 hPa 0 mm - 34 W/m² -
1788352801 23.33° C 88% 1015.1 hPa 0 mm - 24 W/m² -
1788352498 23.33° C 88% 1015 hPa 0 mm - 21 W/m² -
1788352196 22.78° C 88% 1014.9 hPa 0 mm - 19 W/m² -
1788351892 22.78° C 88% 1014.8 hPa 0 mm - 15 W/m² -

* Rain latest hour (hover to see other rain measurements)
** Current wind speed in m/s (hover to see current wind gust speed)